Regional Weather Roundup
Issued by NWS Cleveland, OH

Home | Current Version | Previous Version | Graphics & Text | Print | Product List | Glossary On
Versions: 1 2 3 4 5 6 7 8 9 10 11 12 13 14 15 16 17 18 19 20 21 22 23 24 25 26 27 28 29 30 31 32 33 34 35 36 37 38 39 40 41 42 43 44 45 46 47 48 49 50
000
ASUS41 KCLE 220310
RWRCLE
OHIO REGIONAL WEATHER ROUNDUP
NATIONAL WEATHER SERVICE WILMINGTON, OH
1100 PM EDT THU AUG 21 2014

NOTE: "FAIR" INDICATES FEW OR NO CLOUDS BELOW 12,000 FEET WITH NO
SIGNIFICANT WEATHER AND/OR OBSTRUCTIONS TO VISIBILITY.

OHZ001>008-015>018-024>027-034-035-043-044-220400-
   NORTHWEST OHIO

CITY           SKY/WX    TMP DP  RH WIND       PRES   REMARKS
DEFIANCE       MOCLDY    74  70  87 S5        29.99R
FINDLAY        CLOUDY    73  69  87 S6        29.99R
TOLEDO EXPRESS MOCLDY    72  69  90 CALM      29.98S
TOLEDO METCALF CLOUDY    74  68  81 SW7       30.00R
LIMA           LGT RAIN  73  71  93 S9        30.00S FOG
$$

OHZ009>014-019>023-028>033-038-089-220400-
   NORTHEAST OHIO

CITY           SKY/WX    TMP DP  RH WIND       PRES   REMARKS
CLE-HOPKINS    CLOUDY    72  68  87 SW6       30.02S
CLE-LAKEFRONT  CLOUDY    75  68  78 SW9       29.98F
CUY CO. ARPT   MOCLDY    73  72  94 SW9       30.02S
LORAIN-ELYRIA  CLOUDY    75  68  78 SW6       30.02S
ASHTABULA      CLOUDY    70  68  93 CALM      30.02R
AKRON-CANTON   CLOUDY    72  67  84 SW8       30.03S
WOOSTER        CLOUDY    71  67  87 SW6       30.04S
MANSFIELD      CLOUDY    70  67  90 S7        30.04S
YOUNGSTOWN     CLOUDY    70  67  90 SW3       30.03S
$$

OHZ042-051>053-060>062-070>072-077>081-220400-
  SOUTHWEST OHIO

CITY           SKY/WX    TMP DP  RH WIND       PRES   REMARKS
CINC-COVINGTON CLOUDY    76  72  87 S5        30.03R
CINC-LUNKEN    CLOUDY    74  73  97 CALM      30.02R
HAMILTON       CLOUDY    76  74  93 CALM      30.03R
DAYTON         TSTM      76  72  87 S5        30.04R
WRIGHT-PAT AFB LGT RAIN  74  72  92 SE2       30.03R
DAYTON GENERAL CLOUDY    75  73  93 S5        30.03R
WILMINGTON     MOCLDY    72  70  93 S5        30.04R FOG
$$

OHZ036-037-039>041-045>050-054>059-063>069-073>076-082>088-220400-
  CENTRAL AND SOUTHEAST OHIO

CITY           SKY/WX    TMP DP  RH WIND       PRES   REMARKS
COLUMBUS       CLOUDY    73  69  87 SE5       30.02S
OSU AIRPORT    CLOUDY    72  69  90 S6        30.03S
BOLTON FIELD   MOCLDY    70  70 100 CALM      30.04S FOG
RICKENBACK AFB PTCLDY    70  66  86 CALM      30.02F FOG
NEWARK         CLOUDY    70  68  93 CALM      30.03F
MARION         CLOUDY    70  67  90 S5        30.03R
LANCASTER      MOCLDY    71  69  93 SE6       30.04S
ZANESVILLE     CLEAR     69  67  93 S5        30.05S
NEW PHILLY     MOCLDY    71  68  90 CALM      30.05S
$$


USA.gov is the U.S. government's official web portal to all federal, state and local government web resources and services.